TimeCST,TemperatureF,Dew PointF,Humidity,Sea Level PressureIn,VisibilityMPH,Wind Direction,Wind SpeedMPH,Gust SpeedMPH,PrecipitationIn,Events,Conditions,WindDirDegrees,DateUTC
12:53 AM,25.0,21.9,88,30.13,10.0,West,3.5,-,N/A,,Clear,280,2011-11-22 06:53:00
1:53 AM,26.1,23.0,88,30.12,9.0,NW,4.6,-,N/A,,Clear,310,2011-11-22 07:53:00
2:53 AM,24.1,21.0,88,30.12,9.0,Calm,Calm,-,N/A,,Clear,0,2011-11-22 08:53:00
3:53 AM,23.0,19.9,88,30.11,7.0,Calm,Calm,-,N/A,,Clear,0,2011-11-22 09:53:00
4:53 AM,21.9,19.9,92,30.12,10.0,WNW,5.8,-,N/A,,Clear,290,2011-11-22 10:53:00
5:53 AM,19.9,18.0,92,30.12,9.0,Calm,Calm,-,N/A,,Clear,0,2011-11-22 11:53:00
6:53 AM,21.9,19.0,89,30.13,9.0,West,4.6,-,N/A,,Clear,260,2011-11-22 12:53:00
7:53 AM,21.9,19.9,92,30.14,7.0,West,6.9,-,N/A,,Clear,270,2011-11-22 13:53:00
8:53 AM,28.9,25.0,85,30.14,8.0,West,5.8,-,N/A,,Clear,260,2011-11-22 14:53:00
10:53 AM,50.0,30.9,48,30.12,10.0,NW,11.5,-,N/A,,Clear,320,2011-11-22 16:53:00
11:53 AM,55.9,28.9,36,30.11,10.0,NW,20.7,29.9,N/A,,Clear,320,2011-11-22 17:53:00
12:53 PM,59.0,28.9,32,30.08,10.0,NNW,13.8,-,N/A,,Clear,330,2011-11-22 18:53:00
1:53 PM,60.1,27.0,28,30.06,10.0,NW,10.4,-,N/A,,Clear,320,2011-11-22 19:53:00
2:53 PM,61.0,25.0,25,30.05,10.0,NW,13.8,-,N/A,,Clear,320,2011-11-22 20:53:00
5:53 PM,46.9,25.0,42,30.12,10.0,NW,5.8,-,N/A,,Clear,310,2011-11-22 23:53:00
7:53 PM,37.9,24.1,57,30.18,10.0,West,6.9,-,N/A,,Clear,280,2011-11-23 01:53:00
8:53 PM,36.0,23.0,59,30.19,10.0,WNW,6.9,-,N/A,,Clear,290,2011-11-23 02:53:00
9:53 PM,36.0,23.0,59,30.19,10.0,West,5.8,-,N/A,,Clear,260,2011-11-23 03:53:00
10:53 PM,36.0,21.9,57,30.17,10.0,West,6.9,-,N/A,,Clear,270,2011-11-23 04:53:00
11:53 PM,30.0,21.0,69,30.18,10.0,WSW,6.9,-,N/A,,Clear,240,2011-11-23 05:53:00